EW8838 Weather Reports


time (UTC)temp
C
wind
direction
speed
KPH
gust
KPH
rain 1hr
cm
rain 24hr
cm
rain mn
cm
humidity
%
barometer
mb
20260507113122 10 269 4.8 12.9 0.00 0.00 0.00 93 1021.1
20260507112122 10 331 4.8 9.7 0.00 0.00 0.00 93 1021.2
20260507111122 10 262 4.8 12.9 0.00 0.00 0.00 93 1021.3
20260507110143 10 310 3.2 6.4 0.00 0.00 0.00 93 1021.3
20260507105122 10 291 6.4 14.5 0.00 0.00 0.00 93 1021.2
20260507104122 10 262 4.8 11.3 0.00 0.00 0.00 93 1021.2
20260507103122 10 256 3.2 6.4 0.00 0.00 0.00 93 1021.2
20260507102123 10 263 3.2 6.4 0.00 0.00 0.00 93 1021.3
20260507101122 10 265 3.2 9.7 0.00 0.00 0.00 93 1021.2
20260507100122 10 253 3.2 6.4 0.00 0.00 0.00 93 1021.2
20260507095143 10 267 3.2 9.7 0.00 0.00 0.00 93 1021.3
20260507094143 10 256 4.8 12.9 0.00 0.00 0.00 93 1021.4
20260507093122 10 273 3.2 11.3 0.00 0.00 0.00 93 1021.4
20260507092122 10 315 6.4 12.9 0.00 0.00 0.00 93 1021.5
20260507091122 11 260 4.8 11.3 0.00 0.00 0.00 93 1021.6
20260507090122 11 258 4.8 14.5 0.00 0.00 0.00 93 1021.6
20260507085122 11 256 3.2 6.4 0.00 0.00 0.00 93 1021.6
20260507084143 11 253 3.2 12.9 0.00 0.00 0.00 93 1021.8
20260507083122 11 267 4.8 14.5 0.00 0.00 0.00 93 1021.8
20260507082122 11 279 4.8 17.7 0.00 0.00 0.00 93 1021.9
20260507081143 11 324 1.6 6.4 0.00 0.00 0.00 93 1021.9
20260507080122 11 298 4.8 8.0 0.00 0.00 0.00 93 1021.9
20260507075143 11 286 6.4 12.9 0.00 0.00 0.00 93 1021.9
20260507074122 11 259 4.8 14.5 0.00 0.00 0.00 93 1021.9
20260507073122 11 249 3.2 6.4 0.00 0.00 0.00 93 1021.7
20260507062122 11 267 6.4 6.4 0.00 0.00 0.00 92 1021.9
20260507061122 11 267 6.4 6.4 0.00 0.00 0.00 92 1022.0
20260507060122 11 274 8.0 19.3 0.00 0.00 0.00 92 1021.9
20260507055122 11 270 6.4 16.1 0.00 0.00 0.00 92 1021.9
20260507054122 11 250 3.2 11.3 0.00 0.00 0.00 92 1021.9
20260507053122 11 274 6.4 14.5 0.00 0.00 0.00 92 1021.9
20260507052143 11 264 4.8 14.5 0.00 0.00 0.00 92 1022.0
20260507051122 11 261 6.4 14.5 0.00 0.00 0.00 92 1022.1
20260507050122 11 290 8.0 16.1 0.00 0.00 0.00 92 1022.1
20260507045143 11 261 6.4 17.7 0.00 0.00 0.00 92 1022.1
20260507044122 11 269 6.4 17.7 0.00 0.00 0.00 92 1022.2
20260507043122 11 269 9.7 19.3 0.00 0.00 0.00 92 1022.1
20260507042122 11 267 8.0 17.7 0.00 0.00 0.00 92 1022.1
20260507041122 11 268 8.0 19.3 0.00 0.00 0.00 92 1021.9
20260507040122 11 260 6.4 14.5 0.00 0.00 0.00 91 1021.9
20260507035122 11 262 9.7 17.7 0.00 0.00 0.00 91 1021.8
20260507034143 11 265 8.0 14.5 0.00 0.00 0.00 91 1021.7
20260507033122 11 268 8.0 17.7 0.00 0.00 0.00 91 1021.7
20260507032122 12 253 8.0 14.5 0.00 0.00 0.00 91 1021.6
20260507031122 12 270 6.4 14.5 0.00 0.00 0.00 91 1021.5
20260507030122 12 260 9.7 17.7 0.00 0.00 0.00 91 1021.4
20260507025122 12 299 8.0 17.7 0.00 0.00 0.00 91 1021.4
20260507024145 12 267 9.7 24.1 0.00 0.00 0.00 90 1021.3
20260507023122 12 274 9.7 22.5 0.00 0.00 0.00 90 1021.3
20260507022122 12 279 8.0 17.7 0.00 0.00 0.00 90 1021.4
20260507021122 12 285 8.0 14.5 0.00 0.00 0.00 90 1021.3
20260507020122 12 314 8.0 14.5 0.00 0.00 0.00 90 1021.4
20260507015122 12 269 8.0 16.1 0.00 0.00 0.00 90 1021.5
20260507014122 12 278 11.3 20.9 0.00 0.00 0.00 90 1021.5
20260507013122 12 271 8.0 17.7 0.00 0.00 0.00 89 1021.5
20260507012143 12 291 9.7 19.3 0.00 0.00 0.00 89 1021.5
20260507011122 12 294 11.3 20.9 0.00 0.00 0.00 89 1021.7
20260507010122 12 280 9.7 19.3 0.00 0.00 0.00 89 1021.6
20260507005122 12 264 11.3 19.3 0.00 0.00 0.00 89 1021.5
20260507004122 12 277 11.3 22.5 0.00 0.00 0.00 89 1021.6
20260507003122 12 274 9.7 22.5 0.00 0.00 0.00 89 1021.4
20260507002122 12 262 11.3 20.9 0.00 0.00 0.00 89 1021.4
20260507001122 12 334 12.9 17.7 0.00 0.00 0.00 89 1021.7
20260507000122 12 283 11.3 22.5 0.00 0.00 0.00 88 1021.6
20260506235122 12 259 12.9 24.1 0.00 0.00 0.00 88 1021.6
20260506234122 13 281 11.3 22.5 0.00 0.00 0.00 88 1021.6
20260506233122 13 269 9.7 24.1 0.00 0.00 0.00 88 1021.6
20260506232122 13 276 9.7 22.5 0.00 0.00 0.00 88 1021.5
20260506231122 13 288 8.0 16.1 0.00 0.00 0.00 88 1021.6
20260506230122 13 269 11.3 20.9 0.00 0.00 0.00 88 1021.7
20260506225122 13 277 9.7 19.3 0.00 0.00 0.00 88 1021.7
20260506224122 13 287 9.7 17.7 0.00 0.00 0.00 87 1021.9
20260506223122 13 271 12.9 24.1 0.00 0.00 0.00 87 1022.1
20260506222128 13 283 8.0 16.1 0.00 0.00 0.00 87 1022.0
20260506222123 13 281 8.0 16.1 0.00 0.00 0.00 87 1022.0
20260506221122 13 280 11.3 22.5 0.00 0.00 0.00 86 1022.1
20260506220122 13 295 11.3 20.9 0.00 0.00 0.00 86 1022.4
20260506215122 13 293 9.7 19.3 0.00 0.00 0.00 86 1022.4
20260506214122 13 272 11.3 19.3 0.00 0.00 0.00 85 1022.4
20260506213122 14 268 11.3 20.9 0.00 0.00 0.00 85 1022.5
20260506212122 14 259 9.7 20.9 0.00 0.00 0.00 85 1022.6
20260506211122 14 286 12.9 12.9 0.00 0.00 0.00 85 1022.4
20260506210122 14 298 9.7 16.1 0.00 0.00 0.00 85 1022.5
20260506205122 14 274 11.3 19.3 0.00 0.00 0.00 85 1022.5
20260506204122 14 280 9.7 19.3 0.00 0.00 0.00 85 1022.6
20260506203122 14 264 11.3 20.9 0.00 0.00 0.00 84 1022.6
20260506202122 15 259 9.7 20.9 0.00 0.00 0.00 84 1022.7
20260506201122 14 262 9.7 17.7 0.00 0.00 0.00 83 1022.7
20260506200122 15 262 9.7 19.3 0.00 0.00 0.00 83 1022.7
20260506195144 15 267 8.0 14.5 0.00 0.00 0.00 83 1022.8
20260506194122 15 260 9.7 17.7 0.00 0.00 0.00 84 1022.8
20260506193143 14 260 8.0 17.7 0.00 0.00 0.00 85 1023.0
20260506192122 14 256 11.3 20.9 0.00 0.00 0.00 84 1023.0
20260506191122 14 258 9.7 17.7 0.00 0.00 0.00 84 1023.1
20260506190122 14 264 9.7 19.3 0.00 0.00 0.00 84 1023.2
20260506185122 14 262 8.0 14.5 0.00 0.00 0.00 85 1023.0
20260506184122 13 256 9.7 14.5 0.00 0.00 0.00 85 1023.1
20260506183122 13 271 6.4 14.5 0.00 0.00 0.00 86 1023.2
20260506182143 13 252 8.0 17.7 0.00 0.00 0.00 86 1023.2
20260506181122 13 326 8.0 14.5 0.00 0.00 0.00 86 1023.2
20260506180122 13 267 6.4 14.5 0.00 0.00 0.00 86 1023.1
20260506175143 13 260 8.0 16.1 0.00 0.00 0.00 86 1023.1
20260506174122 13 272 8.0 17.7 0.00 0.00 0.00 86 1023.0
20260506173122 13 269 6.4 11.3 0.00 0.00 0.00 87 1023.0
20260506172123 13 293 6.4 12.9 0.00 0.00 0.00 87 1023.0
20260506171143 13 266 6.4 16.1 0.00 0.00 0.00 87 1023.0
20260506170122 13 254 8.0 17.7 0.00 0.00 0.00 87 1023.0
20260506165143 13 314 4.8 11.3 0.00 0.00 0.00 87 1023.0
20260506164143 13 270 6.4 14.5 0.00 0.00 0.00 87 1023.0
20260506163143 12 252 4.8 12.9 0.00 0.00 0.00 87 1023.0
20260506162122 12 256 6.4 11.3 0.00 0.00 0.00 87 1023.0
20260506161122 12 255 3.2 6.4 0.00 0.00 0.00 88 1023.0
20260506160122 12 258 4.8 9.7 0.00 0.00 0.00 88 1023.0
20260506155122 12 257 3.2 6.4 0.00 0.00 0.00 88 1023.0
20260506154143 12 257 4.8 9.7 0.00 0.00 0.00 88 1022.9
20260506153122 12 255 6.4 9.7 0.00 0.00 0.00 88 1022.8
20260506152143 12 269 3.2 11.3 0.00 0.00 0.00 88 1022.9
20260506151122 12 315 4.8 6.4 0.00 0.00 0.00 87 1022.8
20260506150122 12 313 3.2 6.4 0.00 0.00 0.00 87 1022.9
20260506145122 12 302 3.2 8.0 0.00 0.00 0.00 87 1022.8
20260506144122 12 305 4.8 8.0 0.00 0.00 0.00 87 1022.7
20260506143122 12 289 3.2 6.4 0.00 0.00 0.00 86 1022.7
20260506142122 12 285 3.2 9.7 0.00 0.00 0.00 86 1022.6
20260506141122 12 333 1.6 4.8 0.00 0.00 0.00 85 1022.5
20260506140122 12 334 4.8 8.0 0.00 0.00 0.00 85 1022.3
20260506135122 12 346 3.2 8.0 0.00 0.00 0.00 85 1022.1
20260506134122 12 296 4.8 11.3 0.00 0.00 0.00 86 1022.1
20260506133122 12 312 3.2 9.7 0.00 0.00 0.00 86 1022.1
20260506132122 12 302 4.8 8.0 0.00 0.00 0.00 86 1021.9
20260506131122 12 323 4.8 8.0 0.00 0.00 0.00 86 1021.8
20260506130143 12 290 3.2 11.3 0.00 0.00 0.00 86 1021.8
20260506125122 12 284 3.2 6.4 0.00 0.00 0.00 86 1021.8
20260506124122 12 300 3.2 4.8 0.00 0.00 0.00 86 1021.7
20260506123122 12 300 3.2 6.4 0.00 0.00 0.00 86 1021.6
20260506122122 12 293 3.2 6.4 0.00 0.00 0.00 86 1021.6
20260506121122 12 253 4.8 4.8 0.00 0.00 0.00 86 1021.5
20260506120143 12 256 4.8 11.3 0.00 0.00 0.00 86 1021.4
20260506115122 12 251 4.8 12.9 0.00 0.00 0.00 87 1021.4
20260506114143 12 256 3.2 8.0 0.00 0.00 0.00 86 1021.3